Погода в Носове

Россия / Псковская область     57°06′35″N   27°49′08″E
В апреле 2022 года жителям России запретили посещать сайт meteo.paraplan.net по решению Генеральной прокуратуры. Аудитория сайта уменьшилась в 10 раз. Владельцы сайта не видят смысла в поддержке погодного сервера в таких условиях. Сайт будет закрыт в октябре.
темп.,
°C
ветер,
м/с
пор.,
м/с
влажн.,
%
обл.,
%
осадки,
мм/ч
давл.,
гПа
погр.,
м
25 сентября, вс
вс2500:00+5сз41093100 0.0 1012217
03:00+5сз5119570 0.0 1012256
06:00+4зсз4119499 0.0 1012256
09:00+7сз511755 0.0 1011425
12:00+13сз685120 0.0 10101481
15:00+14сз674434 0.0 10091872
18:00+12сз5850100 0.0 1009717
21:00+10зсз2563100 0.0 1009153
26 сентября, пн
пн2600:00+9з226895 0.0 100947
03:00+5зсз228946 0.0 100923
06:00+4сз119116 0.0 100910
09:00+7ююв00765 0.0 1009114
12:00+13ююв115210 0.0 1009705
15:00+15ююз225027 0.0 10091434
18:00+13ююв11605 0.0 100913
21:00+8вюв22805 0.0 101017
27 сентября, вт
вт2700:00+6вюв33865 0.0 101041
03:00+5юв22905 0.0 101023
06:00+4вюв33933 0.0 101045
09:00+7в36795 0.0 1010225
12:00+14в45535 0.0 1009799
15:00+15в444718 0.0 10081449
18:00+12всв47577 0.0 1008285
21:00+7всв4107798 0.0 1008235
28 сентября, ср
ср2800:00+5всв49959 0.0 1008184
03:00+4св369772 0.0 1007115
06:00+6св3788100 0.0 1006242
09:00+8всв4983100 0.0 1005343
12:00+10всв5776100 0.0 1004477
15:00+13всв675467 0.0 10031490
18:00+11всв5862100 0.1 1003732
21:00+8всв4784100 0.1 1003508
29 сентября, чт
чт2900:00+8всв2586100 0.0 1003372
03:00+8в1288100 0.0 1004173
06:00+7юв2391100 0.1 1004126
09:00+9ююв368881 0.1 1005339
12:00+10ю5978100 0.1 1006842
15:00+12ю686973 0.1 1006977
18:00+11ю5772100 0.0 10081010
21:00+11ю487498 0.0 1010343